Location: Unnamed
(45.1820°N, 67.3015°W)
Time: 12:17:52
(UTC-03:00)

Envisat - Visible Passes

Search period start: 11 April 2026 00:00
Search period end: 21 April 2026 00:00
Orbit: 761 x 762 km, 98.4° (Epoch: 11 April)

Date Brightness Start Highest point End Pass type
(mag) Time Alt. Az. Time Alt. Az. Time Alt. Az.
11 Apr 5.6 02:39:04 10° ENE 02:40:31 11° E 02:40:51 11° E visible
11 Apr 2.9 04:15:04 10° NNE 04:20:10 88° E 04:20:59 64° S visible
11 Apr 4.9 05:55:47 10° NNW 05:58:22 14° WNW 06:00:58 10° W visible
12 Apr 3.9 03:37:29 10° NNE 03:42:16 40° E 03:42:50 39° ESE visible
12 Apr 4.1 05:16:45 10° N 05:21:01 28° WNW 05:22:58 22° W visible
13 Apr 5.0 03:00:37 10° NE 03:04:09 19° E 03:04:41 18° E visible
13 Apr 3.1 04:38:28 10° N 04:43:26 58° WNW 04:44:49 43° SW visible
14 Apr 3.2 04:00:36 10° NNE 04:05:40 66° ESE 04:06:40 53° SSE visible
14 Apr 4.6 05:40:40 10° NNW 05:44:05 18° WNW 05:46:48 12° W visible
15 Apr 4.4 03:23:14 10° NE 03:27:40 30° E 03:28:30 28° ESE visible
15 Apr 3.7 05:02:01 10° N 05:06:38 36° WNW 05:08:39 26° WSW visible
16 Apr 5.3 02:46:56 10° ENE 02:49:28 14° E 02:50:21 13° E visible
16 Apr 2.9 04:23:54 10° N 04:28:59 78° WNW 04:30:29 46° SSW visible
16 Apr 5.0 06:05:14 10° NW 06:07:03 12° NW 06:08:53 10° WNW visible
17 Apr 3.7 03:46:13 10° NNE 03:51:08 48° E 03:52:20 40° SE visible
17 Apr 4.3 05:25:46 10° N 05:29:45 24° WNW 05:32:28 16° WSW visible
18 Apr 4.8 03:09:06 10° NE 03:13:03 22° E 03:14:10 21° ESE visible
18 Apr 3.3 04:47:21 10° N 04:52:14 48° WNW 04:54:18 30° SW visible
19 Apr 3.0 04:09:24 10° NNE 04:14:30 79° ESE 04:16:09 44° S visible
19 Apr 4.8 05:49:51 10° NNW 05:52:47 16° WNW 05:55:42 10° W visible
20 Apr 4.2 03:31:53 10° NNE 03:36:34 36° E 03:37:59 30° SE visible
20 Apr 4.0 05:10:58 10° N 05:15:23 31° WNW 05:18:06 19° WSW visible
